AVA124 SLLP-SGAS

Flight info

Callsign AVA124
Flight time N/A
Altitude 23000
Route VAPAS W18 VURNA/N0461F350 UW18 TOLIP DCT DOPGO UM657 PUGNA PUGNA
Aircraft A320/M-SDE3FGHIRWY/LB1

Departure

Time 2026-04-21 17:30
Airport El Alto International Airport (SLLP)

Arrival

Time N/A
Airport Silvio Pettirossi International Airport (SGAS)
Time Latitude Longitude Altitude Speed Heading
2026-04-21 17:06 -16.50963 -68.17687 13283 ft 0 kts 27°
2026-04-21 17:22 -16.50965 -68.17688 13283 ft 2 kts 27°
2026-04-21 17:22 -16.50981 -68.17696 13281 ft 3 kts 27°
2026-04-21 17:22 -16.50997 -68.17705 13281 ft 3 kts 359°
2026-04-21 17:23 -16.51012 -68.17699 13280 ft 2 kts 287°
2026-04-21 17:23 -16.51013 -68.17697 13281 ft 0 kts 284°
2026-04-21 17:24 -16.51011 -68.17707 13279 ft 6 kts 284°
2026-04-21 17:24 -16.50994 -68.17778 13276 ft 12 kts 281°
2026-04-21 17:25 -16.50995 -68.17874 13275 ft 15 kts 254°
2026-04-21 17:25 -16.51065 -68.17960 13272 ft 17 kts 227°
2026-04-21 17:25 -16.51146 -68.18050 13269 ft 18 kts 226°
2026-04-21 17:25 -16.51234 -68.18149 13267 ft 19 kts 229°
2026-04-21 17:26 -16.51308 -68.18269 13263 ft 20 kts 245°
2026-04-21 17:26 -16.51349 -68.18419 13257 ft 23 kts 262°
2026-04-21 17:26 -16.51351 -68.18601 13248 ft 27 kts 271°
2026-04-21 17:26 -16.51345 -68.18804 13239 ft 30 kts 272°
2026-04-21 17:27 -16.51337 -68.19035 13237 ft 33 kts 271°
2026-04-21 17:27 -16.51329 -68.19279 13219 ft 36 kts 272°
2026-04-21 17:27 -16.51321 -68.19547 13207 ft 38 kts 271°
2026-04-21 17:27 -16.51311 -68.19841 13191 ft 42 kts 272°
2026-04-21 17:28 -16.51301 -68.20155 13173 ft 45 kts 272°
2026-04-21 17:28 -16.51291 -68.20487 13158 ft 46 kts 271°
2026-04-21 17:28 -16.51281 -68.20788 13144 ft 38 kts 272°
2026-04-21 17:28 -16.51258 -68.20995 13137 ft 20 kts 291°
2026-04-21 17:29 -16.51260 -68.21086 13132 ft 8 kts 176°
2026-04-21 17:29 -16.51271 -68.21059 13134 ft 2 kts 102°
2026-04-21 17:29 -16.51274 -68.21012 13136 ft 20 kts 91°
2026-04-21 17:29 -16.51284 -68.20692 13148 ft 71 kts 92°
2026-04-21 17:30 -16.51307 -68.19988 13183 ft 120 kts 92°
2026-04-21 17:30 -16.51339 -68.18973 13232 ft 160 kts 92°
2026-04-21 17:30 -16.51380 -68.17717 13336 ft 187 kts 91°
2026-04-21 17:30 -16.51410 -68.16399 14071 ft 182 kts 86°
2026-04-21 17:31 -16.51422 -68.15073 14626 ft 185 kts 89°
2026-04-21 17:31 -16.51448 -68.13722 15052 ft 187 kts 91°
2026-04-21 17:31 -16.51804 -68.12389 15118 ft 199 kts 129°
2026-04-21 17:31 -16.52942 -68.11591 15245 ft 204 kts 171°
2026-04-21 17:32 -16.53858 -68.11442 15476 ft 199 kts 170°
2026-04-21 17:32 -16.55722 -68.11055 15684 ft 210 kts 164°
2026-04-21 17:32 -16.57156 -68.10651 15814 ft 218 kts 162°
2026-04-21 17:32 -16.58656 -68.10198 15912 ft 230 kts 162°
2026-04-21 17:33 -16.60231 -68.09704 16017 ft 243 kts 161°
2026-04-21 17:33 -16.61897 -68.09166 16107 ft 257 kts 161°
2026-04-21 17:33 -16.63628 -68.08597 16359 ft 264 kts 161°
2026-04-21 17:33 -16.65289 -68.07791 16645 ft 265 kts 141°
2026-04-21 17:34 -16.66594 -68.06440 16947 ft 266 kts 130°
2026-04-21 17:34 -16.67839 -68.05000 17312 ft 268 kts 130°
2026-04-21 17:34 -16.69093 -68.03551 17665 ft 270 kts 131°
2026-04-21 17:34 -16.70356 -68.02092 18002 ft 272 kts 131°
2026-04-21 17:35 -16.71629 -68.00623 18357 ft 274 kts 131°
2026-04-21 17:35 -16.72909 -67.99143 18666 ft 276 kts 131°
2026-04-21 17:35 -16.74202 -67.97651 18943 ft 278 kts 131°
2026-04-21 17:35 -16.75514 -67.96148 19138 ft 285 kts 132°
2026-04-21 17:36 -16.76890 -67.94606 19223 ft 295 kts 132°
2026-04-21 17:36 -16.78325 -67.93010 19301 ft 309 kts 133°
2026-04-21 17:36 -16.79823 -67.91342 19463 ft 319 kts 132°
2026-04-21 17:36 -16.81351 -67.89638 19783 ft 323 kts 132°
2026-04-21 17:37 -16.82891 -67.87915 20140 ft 326 kts 132°
2026-04-21 17:37 -16.84442 -67.86177 20487 ft 328 kts 133°
2026-04-21 17:37 -16.85479 -67.85016 20682 ft 333 kts 132°
2026-04-21 17:37 -16.87651 -67.82588 20847 ft 351 kts 133°
2026-04-21 17:38 -16.89348 -67.80689 20971 ft 364 kts 133°
2026-04-21 17:38 -16.91105 -67.78719 21113 ft 377 kts 133°
2026-04-21 17:38 -16.92918 -67.76684 21238 ft 389 kts 133°
2026-04-21 17:38 -16.94791 -67.74583 21359 ft 401 kts 133°
2026-04-21 17:39 -16.96717 -67.72422 21481 ft 413 kts 133°
2026-04-21 17:39 -16.98700 -67.70195 21607 ft 424 kts 133°
2026-04-21 17:39 -17.00035 -67.68691 21713 ft 429 kts 133°
2026-04-21 17:39 -17.02078 -67.66384 22038 ft 434 kts 132°
2026-04-21 17:40 -17.04135 -67.64061 22421 ft 437 kts 133°